• Processing (Info)

  • MPEC 2014-U15 : 2014 TF64

    The following Minor Planet Electronic Circular may be linked-to from your own Web pages, but must not otherwise be redistributed electronically.

    A form allowing access to any MPEC is at the bottom of this page.


    Read MPEC 2014-U14 Read MPEC 2014-U16


    M.P.E.C. 2014-U15                                Issued 2014 Oct. 18, 14:06 UT
    
         The Minor Planet Electronic Circulars contain information on unusual
             minor planets and routine data on comets.  They are published
       on behalf of Commission 20 of the International Astronomical Union by the
              Minor Planet Center, Smithsonian Astrophysical Observatory,
                              Cambridge, MA 02138, U.S.A.
    
                 Prepared using the Tamkin Foundation Computer Network
    
                                  MPC@CFA.HARVARD.EDU
                URL https://www.minorplanetcenter.net/    ISSN 1523-6714
    
                                       2014 TF64
    
    Observations:
         K14T64F* S2014 10 05.26212 06 46 14.08 +31 35 27.6          18   RLEU015C51
         K14T64F  s2014 10 05.26212 1 - 2279.8413 + 5444.8317 + 3525.1496   EU015C51
         K14T64F  S2014 10 05.45950 06 45 53.32 +31 16 01.5                LEU015C51
         K14T64F  s2014 10 05.45950 1 - 2301.8454 + 5466.9194 + 3476.4650   EU015C51
         K14T64F  S2014 10 05.52533 06 45 46.39 +31 09 31.2                LEU015C51
         K14T64F  s2014 10 05.52533 1 - 2310.7250 + 5488.5997 + 3436.2939   EU015C51
         K14T64F  S2014 10 05.59104 06 45 39.48 +31 03 00.4                LEU015C51
         K14T64F  s2014 10 05.59104 1 - 2314.9575 + 5466.9731 + 3467.6809   EU015C51
         K14T64F  S2014 10 05.72271 06 45 25.53 +30 49 55.9                LEU015C51
         K14T64F  s2014 10 05.72271 1 - 2332.7371 + 5510.0094 + 3386.9506   EU015C51
         K14T64F KC2014 10 08.33706606 40 42.22 +26 19 29.7          20.2 RqEU015V37
         K14T64F KC2014 10 08.33821506 40 42.10 +26 19 22.9          19.6 RqEU015V37
         K14T64F KC2014 10 08.33880506 40 42.03 +26 19 18.9          18.9 RqEU015V37
         K14T64F KC2014 10 08.40802106 40 33.54 +26 11 54.5          20.2 VuEU015H21
         K14T64F KC2014 10 08.41014006 40 33.33 +26 11 40.6          20.5 VuEU015H21
         K14T64F KC2014 10 08.41187506 40 33.11 +26 11 29.2          20.3 VuEU015H21
         K14T64F KC2014 10 18.09613106 20 06.11 +07 00 15.3          20.3 RqEU015K92
         K14T64F KC2014 10 18.10031506 20 05.50 +06 59 43.4          20.3 RqEU015K92
         K14T64F KC2014 10 18.10563006 20 04.69 +06 59 03.3          21.0 RqEU015K92
         K14T64F KC2014 10 18.10966906 20 04.08 +06 58 32.4          20.7 RqEU015K92
         K14T64F KC2014 10 18.16049 06 19 56.70 +06 51 37.9                qEU015204
         K14T64F KC2014 10 18.17238 06 19 54.92 +06 50 07.3                qEU015204
         K14T64F IC2014 10 18.18477 06 19 53.07 +06 48 33.1          20.6 RqEU015204
         K14T64F KC2014 10 18.43887 06 19 16.89 +06 16 18.5          19.9 RqEU015H36
         K14T64F KC2014 10 18.44367 06 19 16.29 +06 15 43.3          20.0 RqEU015H36
         K14T64F  C2014 10 18.48030 06 19 10.97 +06 11 06.3          20.4 RoEU015926
         K14T64F  C2014 10 18.48420 06 19 10.37 +06 10 36.7          20.1 RoEU015926
         K14T64F  C2014 10 18.48811 06 19 09.79 +06 10 07.0          20.3 RoEU015926
    
    Observer details:
    204 Schiaparelli Observatory.  Observer L. Buzzi.  0.60-m f/4.64 reflector
        + CCD.
    926 Tenagra II Observatory.  Observers M. Schwartz, P. R. Holvorcem.  0.81-m
        f/7 Ritchey-Chretien + CCD.
    C51 WISE.  Measurers A. K. Mainzer, J. M. Bauer, T. Grav, J. R. Masiero,
        J. W. Dailey, R. M. Cutri, E. L. Wright, C. Nugent, S. Sonnett,
        R. Stevenson.
    H21 Astronomical Research Observatory, Westfield.  Observer R. Holmes.
        Measurers T. Vorobjov, L. Buzzi, S. Foglia, T. Linder.  0.81-m f/4.0
        astrograph + CCD.
    H36 Sandlot Observatory, Scranton.  Observer G. Hug.  0.56-m reflector + CCD.
    K92 Sutherland-LCOGT B.  Observer T. Lister.  1.0-m f/8 Ritchey-Chretien + CCD.
    V37 McDonald Observatory-LCOGT ELP.  Observer T. Lister.  1.0-m f/8
        Ritchey-Chretien + CCD.
    
    Orbital elements:
    2014 TF64                                                Earth MOID = 0.1310 AU
    Epoch 2014 Dec. 9.0 TT = JDT 2457000.5                  MPC
    M  57.14220              (2000.0)            P               Q
    n   0.48296260     Peri.  114.09833     +0.66304053     +0.56689959
    a   1.6088926      Node   217.98107     -0.45888339     +0.82377894
    e   0.4172140      Incl.   52.59920     +0.59144171     +0.00362009
    P   2.04           H   20.1           G   0.15           U   7
    Residuals in seconds of arc
    141005 C51  0.2+  0.3-    141008 H21  0.3-  0.5+    141018 204  0.1-  0.1+
    141005 C51  0.1-  0.1-    141008 H21  0.3+  0.2+    141018 204  0.1-  0.3+
    141005 C51  0.0   0.1+    141008 H21  0.1+  0.1-    141018 H36  0.4-  1.0-
    141005 C51  0.3+  0.0     141018 K92  0.4-  0.1-    141018 H36  1.5+  0.4+
    141005 C51  0.1-  0.3+    141018 K92  0.1-  0.2-    141018 926  0.0   0.1+
    141008 V37  0.2-  0.3-    141018 K92  0.2-  0.1+    141018 926  0.2-  0.3+
    141008 V37  0.1-  0.3+    141018 K92  0.3-  0.0     141018 926  0.1+  0.4+
    141008 V37  0.1-  0.0     141018 204  0.1-  0.2+
    
    Ephemeris:
    2014 TF64                a,e,i = 1.61, 0.42, 53                  q = 0.9376
    Date    TT    R. A. (2000) Decl.     Delta      r     Elong.  Phase     V
    2014 09 18    07 13 00.6 +53 17 05   0.5893  1.0229    74.8    71.4    21.5
    ...
    2014 10 03    06 50 06.2 +35 10 08   0.4640  1.0963    89.1    65.9    21.0
    ...
    2014 10 11    06 35 32.9 +21 24 22   0.4157  1.1407    99.1    59.8    20.6
    ...
    2014 10 17    06 22 40.1 +09 18 40   0.3964  1.1757   107.0    54.2    20.4
    2014 10 18    06 20 19.6 +07 12 19   0.3949  1.1816   108.3    53.2    20.4
    2014 10 19    06 17 55.7 +05 05 17   0.3940  1.1875   109.5    52.2    20.4
    ...
    2014 10 25    06 02 17.5 -07 29 05   0.4004  1.2237   115.9    47.0    20.3
    ...
    2014 11 02    05 38 22.1 -22 12 58   0.4392  1.2729   120.5    42.2    20.5
    ...
    2014 11 17    04 48 48.1 -39 20 44   0.5798  1.3662   118.8    39.4    21.2
    
    A. U. Tomatic                (C) Copyright 2014 MPC           M.P.E.C. 2014-U15
    

    Read MPEC 2014-U14 Read MPEC 2014-U16


    MPEC number:

    Enter an MPEC number in one of the following forms:

    • 1997-B01 (the full form)
    • J97B01 (the packed version of the full form)
    • B01 (the abbreviated form)